Weather History for Eveleth, MN

Change the Weather History Date:

Friday, November 1, 2013

  Actual Average Record
Temperature  
Mean Temperature 34 °F -  
Max Temperature 37 °F 41 °F 62 °F (2001)
Min Temperature 32 °F 26 °F 14 °F (1996)
Degree Days  
Heating Degree Days 30    
Moisture  
Dew Point 34 °F    
Average Humidity 92    
Maximum Humidity 100    
Minimum Humidity 81    
Precipitation  
Precipitation 0.00 in - - ()
Sea Level Pressure  
Sea Level Pressure 29.56 in    
Wind  
Wind Speed 5 mph (NW)    
Max Wind Speed 13 mph    
Max Gust Speed 17 mph    
Visibility 9 miles    
Events      
Averages and records for this station are not official NWS values.
T = Trace of Precipitation, MM = Missing Value Source: NWS Daily Summary

Daily Weather History Graph

Daily Weather History Graph

Search for Another Location

Airport:

Trip Planner

Search our weather history database for the weather conditions in past years. The results will help you decide how hot, cold, wet, or windy it might be!

Date:

Astronomy

Nov. 01, 2013 Rise Set
Actual Time 7:54 AM CDT 5:52 PM CDT
Civil Twilight 7:21 AM CDT 6:24 PM CDT
Nautical Twilight 6:45 AM CDT 7:00 PM CDT
Astronomical Twilight 6:09 AM CDT 7:36 PM CDT
Moon 5:39 AM CDT (11/1) 4:51 PM CDT (11/1)
Length of Visible Light 11h 02m
Length of Day
9h 58m
Waning Crescent, 4% of the Moon is Illuminated
Nov 1
Waning Crescent
Nov 3
New
Nov 9
First Quarter
Nov 17
Full
Nov 25
Last Quarter

Hourly Weather History & Observations

Time (CDT) Temp. Windchill Dew Point Humidity Pressure Visibility Wind Dir Wind Speed Gust Speed Precip Events Conditions
12:07 AM 37.4 °F - 35.6 °F 93% 29.37 in 5.0 mi Calm Calm - N/A   Overcast
12:27 AM 37.4 °F 33.8 °F 35.6 °F 93% 29.36 in 7.0 mi WNW 4.6 mph - N/A   Overcast
12:46 AM 37.4 °F - 35.6 °F 93% 29.36 in 7.0 mi Calm Calm - N/A   Overcast
1:07 AM 37.4 °F 33.8 °F 35.6 °F 93% 29.37 in 7.0 mi NW 4.6 mph - N/A   Overcast
1:26 AM 37.4 °F 32.8 °F 35.6 °F 93% 29.37 in 7.0 mi NW 5.8 mph - N/A   Overcast
1:47 AM 37.4 °F 33.8 °F 35.6 °F 93% 29.37 in 7.0 mi NW 4.6 mph - N/A   Overcast
2:07 AM 37.4 °F 32.8 °F 35.6 °F 93% 29.37 in 7.0 mi NW 5.8 mph - N/A   Overcast
2:26 AM 37.4 °F 32.1 °F 35.6 °F 93% 29.37 in 7.0 mi WNW 6.9 mph - N/A   Overcast
2:47 AM 37.4 °F 32.1 °F 35.6 °F 93% 29.38 in 7.0 mi WNW 6.9 mph - N/A   Overcast
3:07 AM 37.4 °F 32.1 °F 35.6 °F 93% 29.38 in 7.0 mi NW 6.9 mph - N/A   Overcast
3:26 AM 37.4 °F 32.1 °F 35.6 °F 93% 29.38 in 10.0 mi NNW 6.9 mph - N/A   Overcast
3:47 AM 37.4 °F 32.8 °F 35.6 °F 93% 29.38 in 10.0 mi WNW 5.8 mph - N/A   Overcast
4:07 AM 35.6 °F 29.2 °F 35.6 °F 100% 29.39 in 10.0 mi WNW 8.1 mph - N/A   Overcast
4:26 AM 35.6 °F 29.9 °F 35.6 °F 100% 29.40 in 7.0 mi WNW 6.9 mph - N/A   Overcast
4:47 AM 35.6 °F 28.0 °F 35.6 °F 100% 29.40 in 7.0 mi NW 10.4 mph - N/A   Overcast
5:07 AM 35.6 °F 29.9 °F 35.6 °F 100% 29.40 in 10.0 mi NW 6.9 mph - N/A   Overcast
5:26 AM 35.6 °F 30.7 °F 35.6 °F 100% 29.41 in 7.0 mi NW 5.8 mph - N/A   Overcast
5:47 AM 35.6 °F 29.9 °F 35.6 °F 100% 29.42 in 7.0 mi WNW 6.9 mph - N/A   Overcast
6:07 AM 35.6 °F 31.7 °F 35.6 °F 100% 29.42 in 7.0 mi WNW 4.6 mph - N/A   Overcast
6:26 AM 35.6 °F 32.8 °F 35.6 °F 100% 29.43 in 7.0 mi WNW 3.5 mph - N/A   Overcast
6:47 AM 35.6 °F 32.8 °F 35.6 °F 100% 29.44 in 10.0 mi WNW 3.5 mph - N/A   Overcast
7:07 AM 35.6 °F 32.8 °F 35.6 °F 100% 29.44 in 7.0 mi West 3.5 mph - N/A   Overcast
7:26 AM 35.6 °F 29.2 °F 35.6 °F 100% 29.45 in 10.0 mi WNW 8.1 mph - N/A   Overcast
7:47 AM 37.4 °F 33.8 °F 35.6 °F 93% 29.45 in 10.0 mi WNW 4.6 mph - N/A   Overcast
8:07 AM 37.4 °F 30.8 °F 35.6 °F 93% 29.47 in 10.0 mi WNW 9.2 mph - N/A   Overcast
8:26 AM 37.4 °F 31.4 °F 35.6 °F 93% 29.48 in 7.0 mi NW 8.1 mph - N/A   Overcast
8:47 AM 35.6 °F 29.2 °F 33.8 °F 93% 29.49 in 7.0 mi NW 8.1 mph - N/A   Overcast
9:06 AM 35.6 °F 28.6 °F 33.8 °F 93% 29.49 in 10.0 mi NW 9.2 mph - N/A   Overcast
9:27 AM 35.6 °F 28.6 °F 33.8 °F 93% 29.50 in 10.0 mi NW 9.2 mph - N/A   Overcast
9:47 AM 35.6 °F 27.5 °F 33.8 °F 93% 29.51 in 10.0 mi NW 11.5 mph 16.1 mph N/A   Overcast
10:06 AM 35.6 °F 30.7 °F 33.8 °F 93% 29.52 in 10.0 mi NW 5.8 mph - N/A   Overcast
10:27 AM 35.6 °F 27.1 °F 32.0 °F 87% 29.52 in 10.0 mi WNW 12.7 mph 17.3 mph N/A   Overcast
10:47 AM 35.6 °F 29.2 °F 33.8 °F 93% 29.53 in 10.0 mi WNW 8.1 mph 16.1 mph N/A   Overcast
11:06 AM 35.6 °F 28.6 °F 33.8 °F 93% 29.53 in 10.0 mi NW 9.2 mph - N/A   Overcast
11:25 AM 35.6 °F 29.9 °F 33.8 °F 93% 29.54 in 10.0 mi NW 6.9 mph - N/A   Overcast
11:47 AM 37.4 °F 31.4 °F 32.0 °F 81% 29.55 in 10.0 mi NW 8.1 mph 16.1 mph N/A   Overcast
12:06 PM 35.6 °F 28.6 °F 32.0 °F 87% 29.56 in 10.0 mi NW 9.2 mph - N/A   Overcast
12:27 PM 35.6 °F 28.6 °F 32.0 °F 87% 29.57 in 10.0 mi NNW 9.2 mph - N/A   Overcast
12:47 PM 35.6 °F 29.2 °F 32.0 °F 87% 29.58 in 10.0 mi NW 8.1 mph - N/A   Overcast
1:06 PM 35.6 °F 29.2 °F 32.0 °F 87% 29.58 in 10.0 mi NNW 8.1 mph - N/A   Overcast
1:27 PM 35.6 °F 30.7 °F 32.0 °F 87% 29.59 in 10.0 mi NW 5.8 mph - N/A   Overcast
1:47 PM 35.6 °F 29.2 °F 33.8 °F 93% 29.59 in 10.0 mi NNW 8.1 mph - N/A   Overcast
2:06 PM 35.6 °F 28.6 °F 32.0 °F 87% 29.60 in 10.0 mi NW 9.2 mph - N/A   Overcast
2:27 PM 35.6 °F 29.9 °F 32.0 °F 87% 29.61 in 10.0 mi NW 6.9 mph - N/A   Overcast
2:47 PM 35.6 °F 31.7 °F 32.0 °F 87% 29.63 in 10.0 mi NNW 4.6 mph - N/A   Overcast
3:07 PM 35.6 °F 30.7 °F 32.0 °F 87% 29.63 in 10.0 mi North 5.8 mph - N/A   Overcast
3:26 PM 35.6 °F 31.7 °F 32.0 °F 87% 29.64 in 10.0 mi NNW 4.6 mph - N/A   Overcast
3:47 PM 35.6 °F 29.2 °F 32.0 °F 87% 29.65 in 10.0 mi NW 8.1 mph - N/A   Overcast
4:07 PM 35.6 °F 29.2 °F 32.0 °F 87% 29.66 in 10.0 mi NW 8.1 mph - N/A   Light Drizzle
4:26 PM 35.6 °F 29.2 °F 32.0 °F 87% 29.66 in 10.0 mi NW 8.1 mph - N/A   Overcast
4:47 PM 35.6 °F 29.9 °F 32.0 °F 87% 29.67 in 10.0 mi NW 6.9 mph - N/A   Overcast
5:07 PM 35.6 °F 30.7 °F 30.2 °F 81% 29.68 in 10.0 mi NNW 5.8 mph - N/A   Overcast
5:27 PM 35.6 °F 29.9 °F 30.2 °F 81% 29.69 in 10.0 mi NW 6.9 mph - N/A   Overcast
5:47 PM 35.6 °F 30.7 °F 30.2 °F 81% 29.70 in 10.0 mi NNW 5.8 mph - N/A   Overcast
6:07 PM 35.6 °F 32.8 °F 30.2 °F 81% 29.71 in 10.0 mi NW 3.5 mph - N/A   Overcast
6:26 PM 35.6 °F 32.8 °F 30.2 °F 81% 29.72 in 10.0 mi NW 3.5 mph - N/A   Overcast
6:47 PM 35.6 °F - 32.0 °F 87% 29.73 in 10.0 mi Calm Calm - N/A   Overcast
7:07 PM 35.6 °F - 32.0 °F 87% 29.73 in 10.0 mi Calm Calm - N/A   Overcast
7:26 PM 35.6 °F - 32.0 °F 87% 29.74 in 10.0 mi Calm Calm - N/A   Overcast
7:47 PM 35.6 °F 32.8 °F 32.0 °F 87% 29.75 in 10.0 mi West 3.5 mph - N/A   Overcast
8:07 PM 35.6 °F - 32.0 °F 87% 29.75 in 10.0 mi Calm Calm - N/A   Overcast
8:26 PM 35.6 °F - 32.0 °F 87% 29.76 in 10.0 mi Calm Calm - N/A   Overcast
8:47 PM 33.8 °F - 32.0 °F 93% 29.75 in 10.0 mi Calm Calm - N/A   Overcast
9:07 PM 33.8 °F - 32.0 °F 93% 29.76 in 10.0 mi Calm Calm - N/A   Overcast
9:26 PM 32.0 °F - 32.0 °F 100% 29.76 in 10.0 mi Calm Calm - N/A   Overcast
9:47 PM 33.8 °F - 32.0 °F 93% 29.77 in 10.0 mi Calm Calm - N/A   Overcast
10:07 PM 33.8 °F - 32.0 °F 93% 29.78 in 10.0 mi Calm Calm - N/A   Overcast
10:26 PM 33.8 °F - 33.8 °F 100% 29.78 in 10.0 mi Calm Calm - N/A   Overcast
10:47 PM 33.8 °F - 32.0 °F 93% 29.78 in 10.0 mi Calm Calm - N/A   Overcast
11:06 PM 33.8 °F - 33.8 °F 100% 29.79 in 10.0 mi Calm Calm - N/A   Overcast
11:27 PM 33.8 °F - 33.8 °F 100% 29.79 in 10.0 mi Calm Calm - N/A   Overcast
11:46 PM 35.6 °F - 33.8 °F 93% 29.80 in 10.0 mi Calm Calm - N/A   Overcast